Weather History for KSAW - May, 2013

Change the Weather History Date:

Thursday, May 2, 2013

  Actual Average (KESC) Record (KESC)
Temperature  
Mean Temperature 34 °F -  
Max Temperature 38 °F 52 °F 71 °F (2012)
Min Temperature 30 °F 36 °F 26 °F (1997)
Degree Days  
Heating Degree Days 31    
Moisture  
Dew Point 31 °F    
Average Humidity 87    
Maximum Humidity 100    
Minimum Humidity 71    
Precipitation  
Precipitation 0.00 in - - ()
Sea Level Pressure  
Sea Level Pressure 30.35 in    
Wind  
Wind Speed 18 mph (North)    
Max Wind Speed 34 mph    
Max Gust Speed 45 mph    
Visibility 8 miles    
Events Snow    
Averages and records for this station are not official NWS values.
T = Trace of Precipitation, MM = Missing Value Source: NWS Daily Summary

Daily Weather History Graph

Daily Weather History Graph

Search for Another Location

Airport or City:

Trip Planner

Search our weather history database for the weather conditions in past years. The results will help you decide how hot, cold, wet, or windy it might be!

Date:

Astronomy

May. 02, 2013 Rise Set
Actual Time 6:33 AM EDT 9:00 PM EDT
Civil Twilight 6:00 AM EDT 9:33 PM EDT
Nautical Twilight 5:18 AM EDT 10:15 PM EDT
Astronomical Twilight 4:30 AM EDT 11:04 PM EDT
Moon 2:46 AM EDT (5/2) 1:24 PM EDT (5/2)
Length of Visible Light 15h 33m
Length of Day
14h 26m
Waning Gibbous, 48% of the Moon is Illuminated
May 2
Waning Gibbous
May 9
New
May 18
First Quarter
May 25
Full
May 31
Last Quarter

Hourly Weather History & Observations

Time (EDT) Temp. Windchill Dew Point Humidity Pressure Visibility Wind Dir Wind Speed Gust Speed Precip Events Conditions
12:17 AM 38.3 °F 30.1 °F 30.9 °F 75% 30.36 in 10.0 mi North 13.8 mph - N/A   Overcast
12:37 AM 38.5 °F 30.3 °F 31.1 °F 75% 30.37 in 10.0 mi North 13.8 mph - N/A   Mostly Cloudy
12:57 AM 37.9 °F 29.6 °F 31.6 °F 78% 30.37 in 10.0 mi North 13.8 mph 18.4 mph N/A   Mostly Cloudy
1:17 AM 38.1 °F 30.2 °F 31.5 °F 77% 30.36 in 10.0 mi North 12.7 mph - N/A   Mostly Cloudy
1:37 AM 37.9 °F 28.2 °F 30.9 °F 76% 30.36 in 10.0 mi North 18.4 mph - N/A   Mostly Cloudy
1:57 AM 38.3 °F 30.1 °F 29.8 °F 72% 30.36 in 10.0 mi North 13.8 mph 19.6 mph N/A   Overcast
2:16 AM 38.3 °F 29.7 °F 29.5 °F 71% 30.35 in 10.0 mi North 15.0 mph 20.7 mph N/A   Overcast
2:37 AM 37.8 °F 28.0 °F 30.0 °F 74% 30.36 in 10.0 mi North 18.4 mph - N/A   Overcast
2:57 AM 37.4 °F 26.9 °F 30.7 °F 77% 30.35 in 10.0 mi North 20.7 mph 26.5 mph N/A   Overcast
3:17 AM 36.9 °F 27.1 °F 31.1 °F 80% 30.35 in 10.0 mi North 17.3 mph 24.2 mph N/A   Overcast
3:37 AM 36.5 °F 26.7 °F 31.1 °F 81% 30.35 in 10.0 mi North 17.3 mph - N/A   Overcast
3:57 AM 36.5 °F 26.0 °F 31.8 °F 83% 30.34 in 10.0 mi North 19.6 mph 25.3 mph N/A   Overcast
4:17 AM 36.3 °F 25.5 °F 32.0 °F 84% 30.35 in 10.0 mi North 20.7 mph 25.3 mph N/A   Overcast
4:37 AM 35.8 °F 25.1 °F 31.8 °F 86% 30.35 in 10.0 mi North 19.6 mph 28.8 mph N/A   Overcast
4:56 AM 35.8 °F 25.4 °F 31.6 °F 85% 30.35 in 10.0 mi North 18.4 mph 23.0 mph N/A   Overcast
5:17 AM 35.2 °F 24.7 °F 31.6 °F 87% 30.36 in 10.0 mi North 18.4 mph 24.2 mph N/A   Overcast
5:37 AM 34.7 °F 23.1 °F 31.6 °F 89% 30.36 in 10.0 mi North 21.9 mph 25.3 mph N/A   Overcast
5:57 AM 34.5 °F 23.4 °F 31.8 °F 90% 30.36 in 10.0 mi North 19.6 mph 27.6 mph N/A   Overcast
6:50 AM 33.8 °F 22.5 °F 32.0 °F 93% 30.37 in 10.0 mi North 19.6 mph 28.8 mph N/A   Overcast
7:50 AM 33.8 °F 21.0 °F 32.0 °F 93% 30.37 in 10.0 mi North 25.3 mph 31.1 mph N/A   Overcast
8:50 AM 33.8 °F 21.0 °F 32.0 °F 93% 30.37 in 2.0 mi North 25.3 mph 33.4 mph N/A   Overcast
9:53 AM 33.8 °F 21.6 °F 32.0 °F 93% 30.37 in 10.0 mi North 23.0 mph 33.4 mph N/A   Overcast
10:50 AM 33.8 °F 19.2 °F 32.0 °F 93% 30.35 in 10.0 mi NNE 34.5 mph 44.9 mph N/A   Overcast
11:50 AM 35.6 °F 24.5 °F 32.0 °F 87% 30.36 in 10.0 mi NNE 20.7 mph 33.4 mph N/A   Overcast
12:55 PM 35.6 °F 25.9 °F 32.0 °F 87% 30.39 in 10.0 mi North 16.1 mph 26.5 mph N/A   Overcast
1:55 PM 33.8 °F 22.2 °F 32.0 °F 93% 30.37 in 10.0 mi North 20.7 mph 28.8 mph N/A   Overcast
2:50 PM 32.0 °F 19.8 °F 30.2 °F 93% 30.37 in 7.0 mi North 20.7 mph 27.6 mph N/A   Overcast
4:50 PM 32.0 °F 18.9 °F 30.2 °F 93% 30.35 in 5.0 mi North 24.2 mph 28.8 mph N/A Snow Light Snow
5:50 PM 32.0 °F 19.5 °F 30.2 °F 93% 30.34 in 5.0 mi North 21.9 mph 29.9 mph N/A   Overcast
6:50 PM 32.0 °F 19.2 °F 30.2 °F 93% 30.31 in 3.0 mi NNE 23.0 mph 32.2 mph N/A Snow Light Snow
7:12 PM 32.0 °F 21.2 °F 30.2 °F 93% 30.36 in 1.0 mi North 16.1 mph 20.7 mph N/A Snow Light Snow
7:50 PM 32.0 °F 19.8 °F 30.2 °F 93% 30.33 in 2.0 mi North 20.7 mph 28.8 mph N/A Snow Light Snow
8:50 PM 32.0 °F 18.6 °F 30.2 °F 93% 30.32 in 2.0 mi North 25.3 mph 38.0 mph N/A Snow Light Snow
9:45 PM 30.2 °F 16.8 °F 30.2 °F 100% 30.31 in 10.0 mi North 23.0 mph 31.1 mph N/A Snow Light Snow
10:16 PM 31.6 °F 19.0 °F 30.2 °F 94% 30.33 in 4.0 mi North 21.9 mph 28.8 mph N/A   Overcast
10:37 PM 31.5 °F 19.8 °F 30.2 °F 95% 30.33 in 3.0 mi NNE 18.4 mph 27.6 mph N/A Snow Light Snow
10:57 PM 31.3 °F 19.2 °F 30.2 °F 96% 30.31 in 2.5 mi North 19.6 mph 28.8 mph N/A Snow Light Snow
11:17 PM 31.3 °F 19.2 °F 30.2 °F 96% 30.30 in 2.5 mi NNE 19.6 mph 26.5 mph N/A Snow Light Snow
11:37 PM 31.1 °F 18.0 °F 30.2 °F 96% 30.31 in 4.0 mi North 23.0 mph - N/A   Overcast
11:57 PM 31.1 °F 17.7 °F 30.2 °F 96% 30.31 in 7.0 mi North 24.2 mph 28.8 mph N/A   Overcast